#timestamp,LO_Frequency,Hit,StdDev 
1570327215.8,286046994.3,N
1570327235.6,286046992.5,N
1570327255.4,286046992.7,N
1570327275.3,286046991.7,N
1570327295.1,286046992.3,N
1570327315.8,286046992.5,N
1570327335.7,286046992.5,N
1570327355.5,286046993.7,N
1570327375.4,286046994.7,N
1570327395.2,286046995.5,N
1570327415.0,286046993.9,N
1570327415.9,286046993.9,N
1570327435.8,286046997.6,N
1570327455.6,286046995.7,N
1570327475.4,286046993.4,N
1570327495.3,286046997.9,N
1570327515.1,286047000.8,N
1570327535.9,286046996.6,N
1570327555.7,286046997.8,N
1570327575.5,286046996.0,N
1570327595.4,286046993.0,N
1570327615.2,286046993.1,N
1570327635.0,286046990.1,Y
1570327636.0,286046990.1,P
1570327655.8,286046998.7,N
1570327675.6,286047000.2,N
1570327695.5,286046998.8,N
1570327715.3,286046998.9,N
1570327735.1,286047000.2,N
1570327755.9,286047004.4,N
1570327775.7,286047000.0,N
1570327795.5,286046998.2,N
1570327815.4,286046998.8,N
1570327835.2,286046999.1,N
1570327855.1,286047001.1,N
1570327856.0,286047001.1,N
1570327875.8,286047000.0,N
1570327895.6,286047001.6,N
1570327915.5,286046999.3,N
1570327935.3,286046998.0,N
1570327955.1,286046995.8,N
1570327975.9,286046996.4,N
1570327995.7,286046996.8,N
1570328015.6,286046995.8,N
1570328035.4,286046993.3,N
1570328055.2,286046995.2,N
1570328075.1,286046995.7,N
1570328076.0,286046995.7,N
1570328095.8,286046995.8,N
1570328115.7,286046997.7,N
1570328135.5,286046997.7,N
1570328155.3,286046998.7,N
1570328175.2,286046999.3,N
1570328195.0,286046999.2,N
1570328195.9,286046999.2,N
1570328215.7,286047001.1,N
1570328235.6,286047001.2,N
1570328255.4,286046998.8,N
1570328275.3,286046996.6,N
1570328295.1,286046997.5,N
1570328296.0,286046997.5,N
1570328315.8,286046995.3,N
1570328335.7,286046994.0,N
1570328355.5,286046993.7,N
1570328375.3,286046995.2,N
1570328395.2,286047001.0,N
1570328415.0,286047003.1,N
1570328415.9,286047003.1,N
1570328435.8,286047000.1,N
1570328455.6,286047002.1,N
1570328475.4,286047002.8,N
1570328495.3,286047002.3,N
1570328515.1,286047000.4,N
1570328535.8,286046999.0,N
1570328555.7,286047001.1,N
1570328575.5,286046996.9,N
1570328595.4,286046997.2,N
1570328615.2,286046997.7,N
1570328635.0,286047000.6,N
1570328635.9,286047000.6,N
1570328655.8,286047002.6,N
1570328675.6,286046996.6,N
1570328695.4,286046995.8,N
1570328715.3,286046993.9,N
1570328735.1,286046994.1,N
1570328755.9,286046996.1,N
1570328775.7,286046999.3,N
1570328795.5,286046999.1,N
1570328815.4,286046999.1,N
1570328835.2,286046999.2,N
1570328855.1,286046997.3,N
1570328856.0,286046997.3,N
1570328875.8,286046994.9,N
1570328895.6,286046999.3,N
1570328915.5,286046997.2,N
1570328935.3,286047000.0,N
1570328955.1,286047000.0,N
1570328975.9,286047002.7,N
1570328995.7,286047000.6,N
1570329015.6,286047002.6,N
1570329035.4,286047000.6,N
1570329055.2,286046997.9,N
1570329075.1,286046996.8,N
1570329076.0,286046996.8,N
1570329095.8,286046999.6,N
1570329115.7,286046998.7,N
1570329135.5,286047001.9,N
1570329155.3,286046999.8,N
1570329175.2,286047001.0,N
1570329195.0,286046998.2,N
1570329195.9,286046998.2,N
1570329215.7,286046997.3,N
1570329235.6,286046997.7,N
1570329255.4,286046999.4,N
1570329275.3,286047001.0,N
1570329295.1,286047005.5,N
1570329315.8,286047007.6,Y
1570329335.7,286047006.4,P
1570329355.5,286047009.8,N
1570329375.4,286047010.8,N
1570329395.2,286047010.4,N
1570329415.0,286047005.4,N
1570329415.9,286047005.4,N
1570329435.8,286047001.5,N
1570329455.6,286047002.1,N
1570329475.4,286047006.3,N
1570329495.3,286047010.1,N
1570329515.1,286047007.8,N
1570329535.9,286047006.2,N
1570329555.7,286047010.7,Y
1570329575.5,286047002.1,P
1570329595.4,286047003.4,N
1570329615.2,286047001.7,N
1570329635.1,286047004.1,N
1570329636.0,286047004.1,N
1570329655.8,286047000.4,N
1570329675.6,286046998.3,N
1570329695.5,286046999.6,N
1570329715.3,286046998.5,N
1570329735.1,286046999.4,N
1570329755.9,286046999.3,N
1570329775.7,286047002.7,N
1570329795.6,286047004.1,N
1570329815.4,286047002.8,N
1570329835.2,286047003.6,N
1570329855.1,286047001.7,N
1570329856.0,286047001.7,N
1570329875.8,286047003.4,N
1570329895.6,286047001.4,N
1570329915.5,286047001.5,N
1570329935.3,286047001.6,N
1570329955.2,286047002.9,N
1570329975.9,286047003.6,N
1570329995.7,286047005.7,N
1570330015.6,286047006.4,Y
1570330035.4,286047004.3,P
1570330055.2,286047001.5,N
1570330075.1,286047002.5,N
1570330076.0,286047002.5,N
1570330095.8,286047002.3,N
1570330115.7,286047001.9,N
1570330135.5,286047003.9,Y
1570330155.3,286047003.8,P
1570330175.2,286046998.6,N
1570330195.0,286046995.0,N
1570330195.9,286046995.0,N
1570330215.8,286046993.7,N
1570330235.6,286046993.6,N
1570330255.4,286046996.3,N
1570330275.3,286046995.5,N
1570330295.1,286046999.7,N
1570330315.8,286047000.6,N
1570330335.7,286047003.9,N
1570330355.5,286047000.7,N
1570330375.4,286046999.1,N
1570330395.2,286046998.9,N
1570330415.0,286047000.7,N
1570330415.9,286047000.7,N
1570330435.8,286047000.9,N
1570330455.6,286047000.7,N
1570330475.4,286046999.0,N
1570330495.3,286046998.5,N
1570330515.1,286046994.9,N
1570330535.9,286046993.6,N
1570330555.7,286046997.9,N
1570330575.5,286046997.6,N
1570330595.4,286046995.2,N
1570330615.2,286046997.4,N
1570330635.0,286046998.9,N
1570330635.9,286046998.9,N
1570330655.8,286046997.2,N
1570330675.6,286046997.7,N
1570330695.5,286046998.0,N
1570330715.3,286046997.4,N
1570330735.1,286046995.5,N
1570330755.9,286046996.3,N
1570330775.7,286046994.1,N
1570330795.6,286046992.6,Y
